[[{"header":{"parameterUnit":"m.s-1","parameterCategory":1,"la1":30.2991,"la2":30.254,"lo1":-89.0895,"lo2":-89.0444,"dy":0.0017,"dx":0.0017,"nx":28,"ny":28,"refTime":"2024-08-29T21:00:00:Z","depth":0,"parameterNumber":2,"parameterNumberName":"U-component_of_WINDS"},"data":[0,0,0,0,0,0,0,0,0,0,0,0,0,0,0,0,0,0,0,0,0,0,0,0,0,0,0,0,0,0,0,0,0,0,0,0,0,0,0,0,0,0,0,0,0,0,0,0,0,0,0,0,0,0,0,0,0,0,-2.3411,-2.3412,0,-2.3473,-2.3474,-2.3474,-2.3452,-2.3451,-2.3449,-2.3448,-2.3511,-2.3514,-2.3516,0,0,0,0,0,0,0,0,0,0,0,0,0,-2.3273,-2.3275,-2.3411,-2.3412,-2.3413,-2.3473,-2.3474,-2.3474,-2.3452,-2.345,-2.3449,-2.3447,-2.351,-2.3513,-2.3517,0,0,0,0,0,0,0,0,0,0,0,0,0,-2.3334,-2.3276,-2.3411,-2.3409,-2.3409,-2.3473,-2.3474,-2.3475,-2.3453,-2.345,-2.3448,-2.3446,-2.3509,-2.3513,-2.3517,-2.3586,0,0,-2.3531,-2.3533,0,0,0,0,0,0,0,0,-2.333,-2.3339,-2.3408,-2.3409,-2.341,-2.3453,-2.3448,-2.3512,-2.3453,-2.3436,-2.3448,-2.3445,-2.3493,-2.3499,-2.3515,-2.3589,-2.3592,-2.3531,-2.3534,-2.3536,-2.3537,0,0,0,0,0,0,0,-2.3326,-2.3336,-2.3435,-2.3409,-2.341,-2.3404,-2.3411,-2.346,-2.3475,-2.3437,-2.3436,-2.3444,-2.3493,-2.351,-2.3516,-2.3593,-2.3531,-2.3535,-2.3538,-2.3539,-2.3726,-2.3728,0,0,0,0,0,0,-2.3321,-2.3332,-2.3433,-2.3437,-2.3364,-2.3408,-2.3416,-2.3441,-2.3475,-2.3478,-2.3445,-2.3442,-2.3504,-2.3511,-2.3518,-2.36,-2.3536,-2.354,-2.3542,-2.3723,-2.3726,-2.3729,0,0,0,0,0,0,-2.3319,-2.3331,-2.3431,-2.3385,-2.3397,-2.3413,-2.3442,-2.3443,-2.3461,-2.3481,-2.3483,-2.346,-2.3503,-2.3512,-2.3569,-2.3602,-2.3542,-2.3546,-2.3721,-2.3724,-2.3727,-2.3766,0,0,0,0,0,0,-2.3315,-2.333,-2.3357,-2.3385,-2.3399,-2.3482,-2.3444,-2.3446,-2.3468,-2.3465,-2.3496,-2.3499,-2.3502,-2.3563,-2.3574,-2.3607,-2.3549,-2.3718,-2.3722,-2.3726,-2.3762,-2.377,-2.3778,0,0,0,0,0,-2.331,-2.3365,-2.3358,-2.337,-2.3433,-2.3484,-2.3492,-2.3494,-2.3471,-2.3498,-2.3511,-2.3498,-2.3597,-2.3569,-2.3581,-2.3616,-2.3716,-2.3721,-2.3726,-2.3758,-2.3769,-2.3777,0,0,0,0,0,0,-2.334,-2.3369,-2.3361,-2.3428,-2.3453,-2.348,-2.3514,-2.3505,-2.3538,-2.3533,-2.3534,-2.3541,-2.36,-2.3614,-2.3582,-2.3684,-2.3653,-2.3661,-2.3673,-2.3683,-2.3691,-2.3686,-2.3553,0,0,0,0,0,-2.3355,-2.3393,-2.3416,-2.3473,-2.3486,-2.3498,-2.352,-2.3519,-2.3546,-2.3556,-2.3573,-2.3599,-2.3636,-2.366,-2.3696,-2.3764,-2.3769,-2.3794,-2.3802,-2.3808,-2.3815,-2.3851,-2.3862,-2.3745,-2.3745,-2.3745,0,0,-2.3385,-2.3405,-2.343,-2.3479,-2.3499,-2.3538,-2.3507,-2.355,-2.3579,-2.3563,-2.3618,-2.3631,-2.366,-2.3723,-2.3751,-2.3736,-2.3848,-2.3815,-2.382,-2.3823,-2.3857,-2.3868,-2.3878,-2.3749,-2.3748,-2.3748,0,0,-2.346,-2.348,-2.3528,-2.3549,-2.3579,-2.3586,-2.3598,-2.3625,-2.3633,-2.3688,-2.3676,-2.3711,-2.3775,-2.3796,-2.3815,-2.3896,-2.3885,-2.3908,-2.3949,-2.3984,-2.3993,-2.4001,-2.403,-2.404,-2.3914,-2.3914,-2.3915,0,-2.3494,-2.3553,-2.3554,-2.3599,-2.362,-2.3607,-2.3655,-2.3675,-2.3715,-2.373,-2.3713,-2.3792,-2.381,-2.3877,-2.3897,-2.3913,-2.3926,-2.3904,-2.3992,-2.4,-2.4007,-2.4035,-2.4045,-2.3917,-2.3917,-2.3916,-2.3916,0,-2.3593,-2.3634,-2.367,-2.3708,-2.3734,-2.378,-2.3788,-2.3814,-2.3811,-2.3819,-2.3875,-2.3897,-2.3936,-2.3952,-2.3949,-2.4018,-2.4008,-2.3991,-2.3959,-2.4021,-2.4046,-2.4057,-2.392,-2.392,-2.3919,-2.3918,0,0,-2.369,-2.3728,-2.3741,-2.3758,-2.3789,-2.3821,-2.3866,-2.3904,-2.3926,-2.3954,-2.3991,-2.4045,-2.4029,-2.4051,-2.405,-2.4081,-2.4143,-2.406,-2.4061,-2.4075,-2.422,-2.4232,-2.4244,-2.4136,-2.4138,-2.414,-2.4217,0,-2.3767,-2.3847,-2.3848,-2.3921,-2.3959,-2.3946,-2.3985,-2.4008,-2.4017,-2.405,-2.406,-2.4098,-2.4075,-2.4088,-2.4118,-2.413,-2.4173,-2.4124,-2.4171,-2.4172,-2.4164,-2.4257,-2.4271,-2.4343,-2.4227,-2.4229,-2.423,0,-2.3869,-2.3899,-2.3975,-2.4001,-2.4016,-2.4052,-2.4086,-2.4118,-2.4143,-2.4148,-2.4171,-2.4166,-2.4211,-2.4178,-2.424,-2.4207,-2.4226,-2.4235,-2.4238,-2.4242,-2.4205,-2.4264,-2.4366,-2.4376,-2.4246,-2.4245,-2.4243,0,-2.3931,-2.3991,-2.4044,-2.4059,-2.409,-2.4115,-2.4129,-2.4153,-2.4175,-2.4205,-2.4219,-2.4254,-2.4273,-2.4299,-2.4303,-2.4279,-2.4365,-2.4333,-2.437,-2.437,-2.4389,-2.4388,-2.4495,-2.4401,-2.4401,-2.4401,-2.4401,0,-2.4017,-2.4065,-2.4073,-2.4106,-2.4157,-2.4158,-2.421,-2.4222,-2.4243,-2.4277,-2.4268,-2.43,-2.4303,-2.4337,-2.434,-2.439,-2.4399,-2.4404,-2.4404,-2.4405,-2.4404,-2.4417,-2.4412,-2.4404,-2.4403,-2.4403,-2.4402,0,-2.4096,-2.4104,-2.4161,-2.4185,-2.4192,-2.4229,-2.4249,-2.428,-2.4288,-2.4332,-2.4342,-2.4354,-2.4393,-2.4399,-2.4444,-2.4446,-2.4507,-2.4502,-2.4498,-2.4497,-2.4534,-2.453,-2.4653,-2.4669,-2.4566,-2.4567,-2.4568,0,-2.4151,-2.4187,-2.4214,-2.4236,-2.4252,-2.4288,-2.431,-2.4312,-2.4335,-2.4367,-2.4394,-2.4431,-2.4461,-2.4523,-2.4536,-2.457,-2.4566,-2.4607,-2.4571,-2.457,-2.4566,-2.4564,-2.4567,-2.4614,-2.4615,-2.4616,-2.4616,0,-2.4247,-2.4249,-2.4281,-2.4315,-2.4342,-2.4368,-2.4394,-2.4412,-2.4417,-2.4444,-2.4483,-2.4506,-2.4552,-2.4589,-2.4623,-2.4637,-2.4628,-2.4627,-2.4638,-2.4639,-2.4635,-2.4637,-2.4516,-2.4625,-2.4624,-2.4623,-2.4623,-2.4622,-2.4316,-2.4346,-2.437,-2.4406,-2.4425,-2.4449,-2.4478,-2.4489,-2.4522,-2.4559,-2.4558,-2.4601,-2.4624,-2.4669,-2.4685,-2.4718,-2.4705,-2.472,-2.4724,-2.4728,-2.4731,-2.4629,-2.4724,-2.4724,-2.4724,-2.4723,-2.4723,0,-2.4411,-2.4425,-2.4458,-2.4493,-2.4522,-2.451,-2.4537,-2.4561,-2.4599,-2.4621,-2.4651,-2.4695,-2.473,-2.4746,-2.478,-2.4804,-2.48,-2.4813,-2.4811,-2.4814,-2.4741,-2.4728,-2.4815,-2.4815,-2.4815,-2.4815,-2.4815,-2.4815,-2.4464,-2.4515,-2.4519,-2.4579,-2.4593,-2.4634,-2.4651,-2.4672,-2.469,-2.474,-2.4769,-2.4778,-2.4798,-2.4833,-2.4865,-2.4868,-2.4882,-2.4896,-2.4898,-2.4829,-2.482,-2.4811,-2.4799,-2.4899,-2.4899,-2.4968,-2.4969,-2.4969]},{"header":{"parameterUnit":"m.s-1","parameterCategory":1,"la1":30.2991,"la2":30.254,"lo1":-89.0895,"lo2":-89.0444,"dy":0.0017,"dx":0.0017,"nx":28,"ny":28,"refTime":"2024-08-29T21:00:00:Z","depth":0,"parameterNumber":3,"parameterNumberName":"V-component_of_WINDS"},"data":[0,0,0,0,0,0,0,0,0,0,0,0,0,0,0,0,0,0,0,0,0,0,0,0,0,0,0,0,0,0,0,0,0,0,0,0,0,0,0,0,0,0,0,0,0,0,0,0,0,0,0,0,0,0,0,0,0,0,3.425,3.425,0,3.431,3.431,3.4311,3.4261,3.4259,3.4257,3.4255,3.4312,3.4316,3.4319,0,0,0,0,0,0,0,0,0,0,0,0,0,3.4088,3.4091,3.425,3.4251,3.4251,3.4309,3.431,3.4311,3.4261,3.4259,3.4256,3.4254,3.4311,3.4315,3.4319,0,0,0,0,0,0,0,0,0,0,0,0,0,3.4154,3.4092,3.425,3.4234,3.4233,3.4309,3.431,3.4311,3.4262,3.4259,3.4256,3.4253,3.431,3.4315,3.432,3.4415,0,0,3.4336,3.4338,0,0,0,0,0,0,0,0,3.415,3.416,3.4235,3.4235,3.4234,3.4275,3.4274,3.4346,3.4263,3.4251,3.4255,3.4251,3.4302,3.4308,3.4326,3.4417,3.442,3.4336,3.434,3.4342,3.4343,0,0,0,0,0,0,0,3.4145,3.4157,3.4273,3.4236,3.4236,3.4222,3.4228,3.4287,3.4293,3.4251,3.4248,3.4256,3.4301,3.4321,3.4327,3.4421,3.4336,3.4341,3.4344,3.4346,3.4589,3.4593,0,0,0,0,0,0,3.4143,3.4153,3.4271,3.4275,3.4184,3.4227,3.4234,3.4265,3.4292,3.4294,3.4259,3.4253,3.4313,3.4321,3.4328,3.4439,3.4342,3.4347,3.435,3.4586,3.459,3.4594,0,0,0,0,0,0,3.414,3.4154,3.4269,3.4213,3.4227,3.4233,3.4268,3.4268,3.4287,3.4298,3.4298,3.4278,3.4311,3.4321,3.4393,3.444,3.4349,3.4354,3.4582,3.4587,3.4592,3.4661,0,0,0,0,0,0,3.4135,3.4153,3.4191,3.4215,3.423,3.4334,3.4271,3.4271,3.4297,3.4291,3.4316,3.4317,3.431,3.4386,3.4398,3.4446,3.4358,3.4578,3.4584,3.459,3.4655,3.4668,3.468,0,0,0,0,0,3.413,3.4208,3.4193,3.4207,3.4277,3.4337,3.4346,3.4337,3.4301,3.4337,3.4344,3.4316,3.4433,3.4393,3.4407,3.4457,3.4575,3.4583,3.459,3.4649,3.4666,3.4679,0,0,0,0,0,0,3.4188,3.421,3.4194,3.4282,3.4308,3.4329,3.4374,3.4355,3.439,3.4383,3.4369,3.4375,3.445,3.4461,3.4416,3.4548,3.4498,3.4509,3.4539,3.4554,3.4566,3.4561,3.4362,0,0,0,0,0,3.4211,3.426,3.4276,3.4352,3.4366,3.4368,3.4394,3.4385,3.4411,3.4421,3.4433,3.4458,3.4499,3.4528,3.4567,3.4657,3.466,3.4697,3.471,3.472,3.4729,3.4774,3.479,3.4619,3.4618,3.4618,0,0,3.4259,3.4278,3.4309,3.4364,3.4383,3.4432,3.4378,3.4432,3.4467,3.4429,3.4497,3.4507,3.4533,3.4614,3.465,3.4625,3.4777,3.4729,3.4737,3.4741,3.4783,3.48,3.4814,3.4624,3.4623,3.4622,0,0,3.4372,3.4392,3.4456,3.4476,3.4506,3.4506,3.4522,3.4545,3.455,3.4619,3.459,3.4631,3.4705,3.4724,3.4744,3.4862,3.4837,3.4875,3.4939,3.4983,3.4997,3.5009,3.5048,3.5063,3.4884,3.4884,3.4884,0,3.4427,3.4501,3.4491,3.4547,3.4571,3.454,3.4603,3.4623,3.4664,3.468,3.4652,3.4742,3.4758,3.4841,3.487,3.4888,3.4903,3.4871,3.4996,3.5008,3.5018,3.5056,3.5072,3.4889,3.4888,3.4888,3.4887,0,3.4567,3.4618,3.4666,3.4707,3.4736,3.4796,3.4793,3.4824,3.4812,3.4815,3.4884,3.4902,3.4943,3.4963,3.4952,3.5044,3.5027,3.4998,3.4947,3.5039,3.5074,3.5089,3.4895,3.4893,3.4892,3.4891,0,0,3.4717,3.4751,3.4769,3.4786,3.4815,3.4854,3.4911,3.4952,3.4978,3.5007,3.5053,3.5115,3.5088,3.511,3.51,3.514,3.5229,3.5105,3.5105,3.5125,3.5329,3.535,3.5367,3.5213,3.5216,3.5218,3.5326,0,3.4829,3.493,3.4922,3.5016,3.5062,3.5032,3.5081,3.5103,3.5108,3.5145,3.5149,3.5193,3.5155,3.5167,3.5205,3.521,3.5269,3.5203,3.5254,3.5256,3.5246,3.5386,3.5408,3.5509,3.534,3.5342,3.5344,0,3.4973,3.5007,3.5106,3.5127,3.5146,3.5191,3.5227,3.5264,3.5288,3.5288,3.5312,3.5296,3.5351,3.53,3.5374,3.5329,3.535,3.5355,3.5359,3.5362,3.5304,3.539,3.5541,3.5556,3.5366,3.5364,3.5363,0,3.507,3.5141,3.5209,3.5224,3.5251,3.5283,3.5295,3.5316,3.5341,3.5372,3.5387,3.5425,3.5444,3.5473,3.5465,3.5429,3.5541,3.549,3.554,3.5541,3.5564,3.5562,3.5718,3.5581,3.5581,3.558,3.558,0,3.5195,3.5256,3.5252,3.5294,3.536,3.535,3.5416,3.5424,3.5443,3.5484,3.546,3.5499,3.5488,3.5526,3.5521,3.5582,3.5591,3.5591,3.5589,3.5592,3.5592,3.5604,3.5596,3.5584,3.5583,3.5583,3.5582,0,3.5315,3.5315,3.5386,3.5405,3.5411,3.546,3.5475,3.5513,3.5515,3.5567,3.5578,3.5581,3.5624,3.562,3.5668,3.5664,3.574,3.573,3.5732,3.5729,3.5779,3.5773,3.5947,3.5968,3.5818,3.582,3.5821,0,3.5393,3.544,3.5464,3.549,3.5504,3.5547,3.5572,3.5563,3.5589,3.5619,3.5653,3.5694,3.5726,3.5796,3.5801,3.5837,3.5826,3.5884,3.5831,3.5833,3.5825,3.5821,3.5825,3.5894,3.5896,3.5897,3.5899,0,3.5532,3.553,3.5567,3.5605,3.5635,3.5664,3.569,3.5712,3.5705,3.5736,3.578,3.5805,3.5854,3.5894,3.5928,3.5938,3.5917,3.5915,3.5929,3.5932,3.593,3.593,3.5758,3.5911,3.591,3.5909,3.5908,3.5908,3.5633,3.5671,3.5694,3.5736,3.5754,3.5779,3.5815,3.5821,3.5858,3.5897,3.5889,3.5938,3.5958,3.6002,3.6016,3.6053,3.6031,3.6051,3.6056,3.606,3.6065,3.5926,3.6059,3.6059,3.6058,3.6058,3.6058,0,3.5769,3.5781,3.582,3.5857,3.5889,3.5867,3.5894,3.5922,3.5966,3.5987,3.6019,3.6068,3.6107,3.6115,3.6151,3.6179,3.6169,3.6188,3.6185,3.6187,3.6083,3.6067,3.6195,3.6195,3.6195,3.6195,3.6195,3.6195,3.5843,3.5907,3.5907,3.5978,3.599,3.6038,3.6055,3.6077,3.6094,3.615,3.6182,3.6187,3.6202,3.6239,3.6272,3.6273,3.6287,3.6309,3.6306,3.6209,3.6195,3.6182,3.6167,3.6313,3.6313,3.6407,3.6408,3.6409]}]]